This is the latest recevied weather packets stored in our database for station/object 9A3XK-13. If no packets are shown the sender has not sent any weather packets the latest 10 day(s).
| Time | Temp. | Humidity | Pressure | Rain* | Wind** | Luminosity | Snow |
|---|---|---|---|---|---|---|---|
| 1777802717 | 21.11° C | 42% | 1020.1 hPa | 0 mm | - | 829 W/m² | - |
| 1777801817 | 21.11° C | 45% | 1020.2 hPa | 0 mm | - | 820 W/m² | - |
| 1777801216 | 20.56° C | 48% | 1020.2 hPa | 0 mm | - | 810 W/m² | - |
| 1777800917 | 20° C | 48% | 1020.2 hPa | 0 mm | - | 804 W/m² | - |
| 1777800617 | 20° C | 48% | 1020.3 hPa | 0 mm | - | 797 W/m² | - |
| 1777800317 | 20° C | 49% | 1020.3 hPa | 0 mm | - | 791 W/m² | - |
| 1777800017 | 20° C | 50% | 1020.3 hPa | 0 mm | - | 782 W/m² | - |
| 1777799716 | 19.44° C | 49% | 1020.3 hPa | 0 mm | - | 775 W/m² | - |
| 1777799416 | 19.44° C | 50% | 1020.4 hPa | 0 mm | - | 768 W/m² | - |
| 1777799116 | 19.44° C | 50% | 1020.4 hPa | 0 mm | - | 760 W/m² | - |
| 1777798817 | 19.44° C | 51% | 1020.4 hPa | 0 mm | - | 749 W/m² | - |
| 1777798517 | 18.89° C | 51% | 1020.4 hPa | 0 mm | - | 740 W/m² | - |
| 1777798218 | 18.89° C | 51% | 1020.4 hPa | 0 mm | - | 733 W/m² | - |
| 1777797617 | 18.89° C | 53% | 1020.4 hPa | 0 mm | - | 715 W/m² | - |
| 1777797317 | 18.33° C | 53% | 1020.4 hPa | 0 mm | - | 707 W/m² | - |
| 1777797016 | 18.33° C | 54% | 1020.4 hPa | 0 mm | - | 698 W/m² | - |
| 1777796716 | 18.33° C | 54% | 1020.4 hPa | 0 mm | - | 688 W/m² | - |
| 1777796416 | 18.33° C | 53% | 1020.3 hPa | 0 mm | - | 678 W/m² | - |
| 1777796117 | 17.78° C | 52% | 1020.4 hPa | 0 mm | - | 666 W/m² | - |
| 1777795818 | 18.33° C | 52% | 1020.4 hPa | 0 mm | - | 657 W/m² | - |
| 1777795516 | 17.78° C | 54% | 1020.4 hPa | 0 mm | - | 647 W/m² | - |
| 1777795216 | 17.78° C | 54% | 1020.4 hPa | 0 mm | - | 636 W/m² | - |
| 1777794916 | 17.78° C | 55% | 1020.4 hPa | 0 mm | - | 625 W/m² | - |
| 1777794616 | 17.22° C | 56% | 1020.3 hPa | 0 mm | - | 613 W/m² | - |
| 1777794017 | 16.67° C | 57% | 1020.2 hPa | 0 mm | - | 590 W/m² | - |
* Rain latest hour (hover to see other rain measurements)
** Current wind speed in m/s (hover to see current wind gust speed)